Miscellaneous Local Product
Issued by NWS Hastings, NE

Home | Current Version | Previous Version | Text Only | Print | Product List | Glossary Off
Versions: 1 2 3 4 5 6 7 8 9 10 11 12 13 14 15 16 17 18 19 20 21 22 23 24 25 26 27 28 29 30 31 32 33 34 35 36 37 38 39 40 41 42 43 44 45 46 47 48 49 50

000
AXUS43 KGID 112202
MISGRI

GID CWA HOURLY WEATHER ROUNDUP
NATIONAL WEATHER SERVICE HASTINGS NE
400 PM CST MON DEC 11 2017

NOTE: "FAIR" INDICATES FEW OR NO CLOUDS BELOW 12,000 FEET WITH NO
SIGNIFICANT WEATHER AND/OR OBSTRUCTIONS TO VISIBILITY.

...SOUTH CENTRAL NEBRASKA...

CITY           SKY/WX    TMP DP  RH WIND       PRES   REMARKS
GRAND ISLAND   CLOUDY    42  30  62 NW24G32   30.22R
KEARNEY        CLOUDY    44  28  53 N30G38    30.23R
HASTINGS       CLOUDY    44  28  53 N30G41    30.21R
ORD            CLOUDY    41  29  62 N28G39    30.23R
YORK           CLOUDY    45  30  57 NW23G29   30.15R
AURORA         CLOUDY    43  28  56 NW22G32   30.19R
LEXINGTON      SUNNY     46  26  45 N25G36    30.25R
HOLDREGE       CLOUDY    44  28  52 N18G33    30.23R
HEBRON         CLOUDY    47  28  47 NW22G32   30.17R

...NEBRASKA PANHANDLE...

CITY           SKY/WX    TMP DP  RH WIND       PRES   REMARKS
CHADRON        PTSUNNY   45  17  32 N12G24    30.34R
ALLIANCE       MOSUNNY   46  10  23 N21G32    30.30R
SCOTTSBLUFF    CLOUDY    50  15  24 NW16      30.35R
SIDNEY         SUNNY     50  11  20 N30G38    30.32R

...WESTERN AND NORTH CENTRAL NEBRASKA...

CITY           SKY/WX    TMP DP  RH WIND       PRES   REMARKS
VALENTINE      CLOUDY    40  31  70 NW13G20   30.29R WCI  32
AINSWORTH      DRIZZLE   37  33  84 N24       30.28R WCI  26
ONEILL         CLOUDY    38  32  79 NW29G38   30.23R WCI  26
BROKEN BOW     CLOUDY    42  28  57 N29G37    30.24R
IMPERIAL       MOSUNNY   48  11  22 N20G32    30.28R
NORTH PLATTE   MOSUNNY   47  25  42 N20G32    30.27R
MCCOOK         SUNNY     51  23  33 N26G40    30.25R

...EASTERN NEBRASKA...

CITY           SKY/WX    TMP DP  RH WIND       PRES   REMARKS
NORFOLK        CLOUDY    39  33  79 N18G32    30.17R WCI  30
SO SIOUX CITY  CLOUDY    39  27  62 N29G39    30.11R WCI  27
TEKAMAH        CLOUDY    41  29  62 N28G39    30.12R
COLUMBUS       CLOUDY    41  32  70 NW31G38   30.17R
ALBION         CLOUDY    41  32  71 N24G36    30.19R
OMAHA EPPLEY   CLOUDY    43  30  60 N26G44    30.07R
OFFUTT AFB     CLOUDY    44  31  62 NW21G36   30.08R
MILLARD        CLOUDY    45  33  61 NW18G30   30.10R
LINCOLN        LGT RAIN  45  32  60 N25G35    30.14R
NEBRASKA CITY  DRIZZLE   44  34  68 NW28G39   30.08R
BEATRICE       CLOUDY    46  31  55 NW23G38   30.13R
FALLS CITY     CLOUDY    48  30  49 NW24G31   30.07R

...NORTHERN KANSAS...

CITY           SKY/WX    TMP DP  RH WIND       PRES   REMARKS
GOODLAND       SUNNY     54   7  15 N28G45    30.27R
HILL CITY      CLOUDY    53  20  27 N21G36    30.23R
NORTON         CLEAR     54  18  24 NW28G38   30.21R
PHILLIPSBURG   SUNNY     54  21  28 NW24G35   30.21R
SMITH CENTER   SUNNY     48  25  40 N17G28    30.21R
HAYS           MOSUNNY   55  20  25 N25G33    30.19R
RUSSELL        SUNNY     54  22  28 N31G37    30.17R
CONCORDIA      CLOUDY    49  27  42 N31G37    30.17R
SALINA         MOSUNNY   55  27  34 N25G36    30.16R
TOPEKA         CLOUDY    52  28  39 NW24G35   30.07R



USA.gov is the U.S. government's official web portal to all federal, state and local government web resources and services.